Wind_Speed
10 11 11 12 12 12 12 12 13 14 14 13 12 12 12 11 11 11 11 12 13 13 12 12 13 14 14 15 14 14 14 14 14 13 13 13 14 14 14 13 14 14 14
11 11 12 12 12 13 13 12 12 13 13 13 13 12 12 11 11 12 12 12 13 13 13 13 13 14 14 15 15 14 14 14 15 15 15 14 15 15 15 15 15 15 15
12 11 12 13 12 12 13 13 13 13 13 13 14 13 12 12 12 13 13 12 12 12 13 14 14 14 14 14 14 15 15 15 15 16 16 15 15 15 16 16 17 17 17
11 12 13 13 13 13 14 14 14 14 13 13 14 14 13 13 12 13 12 13 12 12 14 14 14 14 14 14 14 14 15 15 16 16 16 16 16 17 17 17 17 18 19
12 12 13 13 13 13 13 13 13 13 13 13 13 14 14 14 13 13 12 13 12 12 14 15 15 15 15 15 15 15 15 15 16 16 17 17 17 17 17 18 18 18 20
12 12 13 13 13 13 13 13 14 13 13 13 14 14 14 14 14 13 13 13 14 14 14 15 16 16 16 16 16 16 16 16 16 17 17 17 18 18 18 18 19 19 20
12 12 12 13 13 13 13 13 13 14 13 13 13 15 15 14 14 13 14 15 15 16 15 15 16 17 17 18 18 17 18 18 18 19 19 19 19 19 20 20 20 20 21
13 13 12 13 13 13 13 13 13 13 13 14 14 15 15 14 14 15 15 16 17 17 17 16 16 18 19 19 19 19 19 19 20 20 20 20 21 21 21 21 22 22 22
13 13 13 13 12 12 13 13 13 13 14 14 14 15 15 15 16 16 17 17 18 19 18 18 17 18 19 19 20 20 20 20 20 21 21 22 22 23 23 23 23 24 24
12 12 12 12 11 12 13 14 14 14 14 14 14 15 15 15 16 16 17 18 19 20 20 19 19 19 19 19 19 20 21 21 21 22 22 22 23 23 24 25 24 24 25
11 11 11 12 12 12 13 14 14 14 14 15 15 16 16 15 16 16 16 17 18 19 19 19 20 19 19 19 19 20 21 21 22 22 22 23 23 24 25 25 25 25 25
11 11 11 11 12 13 13 13 14 14 15 16 16 16 16 16 17 17 17 17 17 17 18 19 19 19 19 20 20 20 21 22 22 23 23 23 24 24 25 25 25 26 26
11 11 11 11 11 12 12 13 13 15 15 16 16 16 17 17 17 17 18 17 17 17 17 17 18 19 20 20 20 21 21 22 23 23 24 25 25 25 25 26 26 26 26
11 11 11 10 11 11 12 12 13 14 16 16 17 17 17 18 17 18 18 18 17 17 17 17 18 18 19 19 20 20 20 21 23 24 24 25 26 26 26 26 27 27 27
10 10 10 10 11 11 12 13 14 15 15 16 17 17 18 18 18 18 18 18 17 17 16 16 16 17 18 18 19 20 21 21 22 23 23 24 25 26 27 27 26 27 27
10 11 11 11 11 11 12 13 14 15 15 15 16 17 16 16 16 16 16 16 15 15 16 16 16 16 17 19 19 19 19 21 22 23 23 23 24 25 26 26 26 25 26
10 11 11 12 12 13 14 13 14 14 15 16 17 16 16 16 16 16 16 16 17 17 17 17 17 17 18 18 19 20 20 21 22 22 22 23 24 24 25 26 26 26 26
11 11 11 11 12 13 14 14 14 14 14 15 16 16 16 16 16 17 16 16 16 17 18 18 18 18 18 20 21 21 21 21 22 22 23 23 24 24 25 26 27 27 27
12 12 12 13 13 14 14 14 14 14 15 15 15 16 15 16 16 16 16 16 16 17 18 18 18 19 20 20 21 22 22 22 22 23 23 23 24 25 25 26 27 27 27
14 14 14 14 15 15 15 15 15 15 15 15 15 15 16 16 16 16 16 17 18 18 19 18 18 20 21 22 22 23 23 23 23 23 23 23 23 24 25 26 27 28 28
15 15 15 16 16 16 16 16 16 15 15 16 16 16 16 16 16 16 16 17 18 18 18 19 20 21 22 23 23 23 23 23 23 24 23 23 24 24 25 26 27 27 28
16 16 16 16 17 17 17 17 17 16 17 17 18 17 17 17 17 16 17 17 18 18 19 19 20 21 22 23 24 24 24 24 24 24 24 25 25 25 25 25 26 26 27
18 18 18 17 18 18 18 18 18 19 19 19 19 19 19 18 17 17 18 18 19 19 20 21 21 22 23 24 24 24 25 24 24 23 24 24 24 25 26 26 26 27 27
18 19 19 19 19 19 19 20 20 21 21 21 21 20 20 20 20 20 20 20 20 20 21 22 22 23 23 24 24 25 25 25 25 24 25 25 25 25 26 27 27 28 29
18 18 19 19 19 20 20 21 22 23 23 23 23 22 22 22 22 22 22 22 22 22 22 22 23 23 23 23 23 24 24 24 25 25 26 26 26 27 27 27 28 29 29
18 19 19 19 20 20 20 21 21 22 23 22 22 23 22 23 23 23 23 22 22 23 23 23 23 23 23 23 24 24 25 25 26 26 26 26 26 27 28 28 29 29 30
Wind_Direction
255 252 249 251 255 255 256 254 253 256 255 253 253 256 262 261 267 262 263 265 266 265 260 257 255 255 254 254 252 251 251 249 249 251 254 255 255 252 249 248 247 243 242
259 258 257 257 256 260 260 261 261 260 259 259 258 257 264 267 265 264 263 266 266 262 256 255 255 255 252 250 252 255 253 251 252 252 253 255 255 253 250 247 247 244 242
262 262 259 258 258 260 260 260 261 264 264 263 260 261 263 267 266 267 268 271 269 260 256 256 256 257 256 255 255 256 254 254 256 255 255 255 253 254 251 248 247 245 244
263 262 260 261 263 261 259 258 259 262 263 262 258 261 263 268 267 270 270 270 268 261 258 257 257 258 255 256 258 258 258 257 256 255 254 256 255 257 253 250 248 247 245
267 265 264 263 268 268 263 260 261 261 258 258 261 265 265 268 267 269 268 268 266 264 258 256 256 257 257 257 258 258 258 260 258 255 253 254 257 257 253 252 249 249 247
269 267 267 268 271 272 266 262 264 263 259 259 263 263 266 267 266 266 269 267 265 265 263 258 256 256 258 257 258 258 258 261 259 258 255 256 257 255 253 253 251 250 250
272 270 272 272 272 273 269 266 264 264 261 263 266 266 266 266 265 265 271 271 268 267 267 264 259 258 259 257 258 258 259 261 260 259 257 258 257 256 255 257 256 254 253
273 270 275 274 273 273 271 272 271 266 265 268 268 269 268 267 266 268 269 269 269 268 269 265 261 260 261 261 259 261 262 261 261 259 259 260 260 257 256 259 259 259 257
279 275 277 277 275 276 272 271 273 267 266 267 269 270 271 269 272 272 272 271 272 271 270 266 264 263 262 263 261 262 265 263 262 261 261 262 261 257 257 260 260 259 259
282 278 276 275 274 277 277 274 273 269 269 269 268 271 274 273 274 275 274 274 274 272 269 267 266 265 265 266 264 263 264 262 262 263 264 264 262 259 258 260 261 260 258
280 280 280 276 274 277 279 278 276 272 271 271 272 273 273 274 276 278 276 277 277 273 268 267 266 265 265 267 269 268 267 266 264 264 265 265 264 262 261 260 261 261 259
279 283 285 281 278 277 279 278 277 275 274 275 275 275 274 273 275 277 277 278 280 276 271 266 265 266 267 267 270 269 268 269 267 265 265 265 264 263 262 262 262 262 261
286 286 288 287 284 282 281 280 279 275 274 275 274 276 276 272 275 276 277 278 280 278 273 269 269 269 269 269 270 269 270 269 268 267 267 265 265 264 264 263 262 262 262
288 290 290 291 290 289 288 286 281 278 276 275 276 276 275 274 275 276 276 277 278 277 276 275 273 273 271 271 271 272 274 271 270 270 270 268 266 266 266 265 262 262 261
292 289 290 288 293 295 292 289 285 284 281 278 277 275 275 276 278 280 277 277 278 278 277 277 277 276 277 275 276 275 275 274 273 272 272 270 268 267 265 265 264 262 260
292 292 290 286 292 297 296 290 285 284 283 284 282 280 281 282 284 285 284 282 281 280 281 283 283 281 279 276 276 276 276 275 275 274 273 272 271 270 268 267 267 267 263
295 294 293 291 294 295 295 295 290 287 286 285 284 281 284 288 290 290 287 283 283 283 283 283 285 285 283 280 278 279 278 278 277 277 275 274 272 271 269 268 268 268 265
289 294 297 296 297 296 296 298 297 294 293 293 291 287 286 287 289 288 285 284 285 286 285 285 284 284 283 280 281 279 280 279 279 278 277 275 273 272 271 270 270 269 267
287 290 293 295 295 295 294 297 295 294 296 297 298 294 290 288 288 287 287 288 288 288 285 284 284 285 285 283 281 282 282 280 279 279 278 276 274 274 274 272 272 271 269
285 288 289 291 292 294 295 294 294 294 296 296 295 295 294 291 289 287 288 289 288 287 286 285 284 285 286 286 284 283 283 282 281 280 278 276 274 275 275 273 272 271 269
285 286 287 288 290 292 293 293 292 293 294 295 295 295 293 293 291 289 288 289 289 289 288 288 287 288 289 288 286 285 283 281 280 280 280 278 277 275 273 274 273 272 270
283 285 285 287 289 291 293 293 292 293 293 294 295 295 294 292 292 291 292 291 292 291 290 291 290 290 291 291 290 287 284 282 281 282 282 281 280 276 274 274 274 273 272
283 284 284 286 287 289 290 291 291 293 293 293 293 292 291 291 290 291 294 295 293 292 291 291 291 292 292 292 291 289 287 285 284 282 282 283 282 280 277 275 276 276 275
284 284 284 286 288 288 289 289 290 291 292 291 291 291 290 288 289 291 294 295 294 293 291 291 292 293 293 292 291 290 288 286 285 284 284 284 283 283 282 280 279 278 276
284 284 283 284 285 286 287 287 287 288 288 289 289 289 288 288 288 290 292 293 293 293 292 293 293 292 291 291 292 292 289 288 288 288 288 286 285 284 283 281 279 278 277
285 284 284 285 286 285 286 286 286 286 286 286 286 287 289 289 289 289 290 291 290 290 291 292 293 293 292 292 293 293 293 291 289 289 289 288 287 285 284 282 281 281 279
Height
5845 5846 5847 5848 5849 5850 5850 5850 5851 5852 5853 5853 5854 5855 5856 5856 5857 5858 5859 5859 5860 5861 5862 5863 5863 5863 5865 5866 5867 5868 5868 5869 5870 5871 5872 5873 5874 5875 5876 5877 5878 5879 5881
5843 5843 5844 5845 5846 5847 5847 5848 5848 5849 5850 5851 5851 5852 5853 5854 5854 5855 5856 5856 5857 5857 5858 5859 5860 5861 5862 5863 5864 5864 5865 5866 5867 5868 5869 5870 5871 5872 5873 5874 5875 5876 5878
5840 5841 5842 5843 5843 5843 5844 5845 5845 5846 5847 5848 5848 5849 5850 5851 5851 5852 5852 5853 5853 5854 5855 5856 5857 5857 5858 5859 5860 5861 5862 5863 5864 5865 5866 5866 5867 5868 5870 5871 5872 5873 5874
5838 5839 5840 5840 5840 5840 5841 5842 5842 5843 5844 5844 5845 5846 5847 5848 5848 5848 5849 5849 5850 5850 5851 5852 5853 5854 5855 5856 5857 5858 5859 5859 5860 5861 5862 5863 5864 5864 5866 5867 5868 5869 5871
5836 5837 5837 5837 5838 5838 5838 5839 5839 5840 5840 5841 5843 5843 5844 5844 5845 5845 5845 5846 5846 5847 5847 5848 5849 5850 5851 5852 5853 5854 5855 5856 5857 5857 5858 5859 5860 5861 5862 5863 5864 5865 5867
5834 5834 5834 5835 5835 5835 5835 5836 5836 5837 5837 5838 5839 5840 5840 5841 5841 5841 5841 5842 5842 5843 5843 5844 5845 5846 5847 5848 5849 5850 5851 5852 5852 5853 5854 5855 5856 5857 5858 5859 5860 5861 5863
5831 5831 5832 5832 5832 5832 5832 5832 5833 5834 5834 5835 5835 5836 5836 5837 5837 5837 5837 5838 5838 5838 5839 5840 5840 5841 5842 5843 5845 5846 5847 5847 5848 5849 5850 5851 5851 5852 5853 5854 5855 5856 5858
5828 5828 5828 5829 5829 5829 5829 5829 5830 5830 5831 5831 5832 5832 5832 5833 5833 5833 5833 5833 5834 5834 5834 5835 5835 5836 5837 5839 5840 5841 5842 5842 5843 5844 5845 5846 5847 5848 5849 5849 5850 5851 5853
5825 5825 5825 5826 5826 5826 5826 5827 5827 5827 5827 5828 5828 5828 5828 5829 5829 5829 5829 5829 5829 5829 5829 5830 5830 5831 5833 5834 5835 5836 5836 5837 5838 5839 5839 5840 5841 5842 5843 5844 5845 5846 5847
5822 5822 5822 5823 5823 5823 5823 5823 5824 5824 5824 5824 5824 5824 5824 5824 5825 5825 5824 5824 5824 5824 5824 5825 5826 5827 5828 5829 5829 5830 5831 5831 5832 5833 5834 5834 5835 5836 5837 5838 5839 5839 5841
5820 5820 5819 5819 5820 5820 5820 5820 5820 5820 5821 5821 5821 5820 5820 5820 5820 5820 5820 5819 5819 5819 5819 5820 5820 5821 5823 5824 5824 5825 5825 5826 5826 5827 5828 5828 5829 5830 5831 5831 5832 5833 5834
5817 5817 5817 5817 5817 5817 5816 5817 5817 5817 5817 5817 5817 5816 5816 5816 5816 5815 5815 5815 5814 5814 5814 5815 5816 5817 5817 5818 5819 5819 5819 5820 5820 5821 5821 5822 5822 5823 5824 5825 5826 5827 5828
5815 5814 5814 5814 5814 5813 5813 5813 5813 5813 5813 5813 5813 5812 5812 5811 5811 5811 5810 5810 5810 5810 5810 5810 5811 5812 5812 5813 5813 5813 5813 5814 5814 5815 5815 5816 5816 5817 5818 5819 5819 5820 5821
5812 5812 5811 5811 5811 5811 5810 5810 5810 5810 5809 5809 5809 5808 5808 5807 5807 5806 5806 5806 5806 5806 5806 5806 5806 5806 5807 5807 5807 5807 5807 5808 5808 5808 5809 5809 5809 5810 5811 5812 5813 5814 5815
5810 5810 5809 5809 5808 5808 5808 5807 5807 5806 5806 5805 5805 5804 5804 5804 5803 5802 5802 5802 5802 5801 5801 5801 5801 5802 5801 5802 5802 5802 5802 5802 5802 5802 5802 5802 5803 5803 5804 5805 5805 5807 5808
5808 5807 5807 5806 5806 5805 5805 5804 5803 5803 5802 5802 5801 5801 5800 5800 5799 5798 5798 5797 5797 5797 5797 5797 5797 5797 5796 5797 5797 5797 5796 5796 5796 5796 5796 5796 5796 5797 5797 5798 5798 5799 5800
5806 5805 5804 5804 5803 5803 5802 5801 5800 5799 5799 5798 5797 5797 5796 5796 5795 5795 5794 5793 5793 5793 5793 5793 5793 5792 5792 5791 5791 5791 5790 5791 5790 5790 5790 5790 5790 5790 5790 5791 5792 5793 5793
5803 5803 5802 5802 5801 5800 5799 5798 5797 5796 5796 5795 5794 5793 5793 5792 5791 5791 5790 5789 5789 5789 5788 5788 5788 5787 5787 5786 5786 5785 5785 5785 5784 5784 5784 5783 5783 5783 5783 5784 5785 5785 5786
5801 5800 5800 5799 5799 5798 5797 5795 5794 5793 5793 5792 5791 5790 5789 5788 5788 5787 5786 5785 5785 5784 5784 5784 5783 5783 5782 5781 5780 5779 5779 5778 5778 5777 5777 5776 5776 5776 5776 5777 5777 5778 5778
5798 5797 5797 5796 5795 5795 5794 5792 5791 5790 5789 5788 5788 5787 5786 5785 5784 5783 5782 5781 5781 5780 5779 5779 5778 5778 5777 5776 5775 5774 5773 5772 5771 5771 5770 5770 5770 5769 5769 5769 5769 5770 5770
5794 5794 5793 5793 5792 5791 5790 5789 5788 5787 5786 5785 5784 5783 5782 5781 5780 5779 5778 5777 5776 5775 5774 5774 5773 5772 5771 5770 5769 5768 5767 5766 5765 5764 5764 5763 5763 5763 5762 5762 5762 5762 5762
5790 5790 5789 5789 5788 5787 5786 5785 5784 5783 5782 5781 5780 5779 5778 5776 5776 5774 5773 5773 5772 5770 5769 5768 5767 5766 5765 5763 5762 5761 5760 5759 5759 5758 5757 5756 5755 5755 5755 5754 5754 5754 5754
5786 5785 5785 5784 5783 5783 5782 5780 5780 5779 5778 5777 5776 5774 5773 5772 5771 5770 5768 5767 5766 5765 5764 5762 5761 5760 5758 5757 5756 5754 5753 5752 5752 5751 5750 5749 5748 5748 5747 5746 5746 5746 5745
5781 5781 5780 5780 5779 5778 5777 5776 5775 5774 5773 5771 5770 5769 5768 5767 5766 5764 5763 5762 5761 5759 5758 5756 5755 5754 5752 5751 5749 5748 5747 5746 5745 5744 5742 5742 5741 5741 5740 5739 5738 5737 5737
5776 5776 5775 5774 5774 5773 5771 5770 5769 5768 5767 5766 5764 5763 5762 5761 5760 5758 5757 5756 5755 5753 5751 5750 5749 5747 5746 5744 5743 5741 5740 5739 5738 5737 5735 5734 5733 5732 5732 5731 5730 5729 5728
5771 5770 5769 5769 5768 5767 5766 5764 5763 5762 5761 5759 5758 5757 5756 5754 5753 5752 5751 5750 5749 5747 5745 5744 5742 5741 5739 5738 5736 5734 5733 5731 5730 5729 5728 5726 5725 5724 5723 5722 5721 5720 5719